Regional Weather Roundup
Issued by NWS

Home | Current Version | Previous Version | Graphics & Text | Print | Product List | Glossary On
Versions: 1 2 3 4 5 6 7 8 9 10 11 12 13 14 15 16 17 18 19 20 21 22 23 24 25 26 27 28 29 30 31 32 33 34 35 36 37 38 39 40 41 42 43 44 45 46 47 48 49 50
000
ASUS43 KMPX 202110
RWRMN
WEATHER ROUNDUP FOR MINNESOTA
NATIONAL WEATHER SERVICE TWIN CITIES/CHANHASSEN MN
400 PM CDT FRI APR 20 2018


NOTE: "FAIR" INDICATES FEW OR NO CLOUDS BELOW 12,000 FEET WITH NO
SIGNIFICANT WEATHER AND/OR OBSTRUCTIONS TO VISIBILITY. N/A MEANS
CURRENT SKY AND/OR WEATHER CONDITIONS ARE NOT AVAILABLE.

MNZ060>063-068>070-202200-
   Twin Cities Metro

CITY           SKY/WX    TMP DP  RH WIND       PRES   REMARKS
TWIN CITIES    PTSUNNY   51  17  26 SE7       30.44F
ST PAUL        FAIR      51  19  28 S6        30.45F
CRYSTAL        FAIR      51  17  26 CALM      30.42F
BLAINE         PTSUNNY   54  19  26 S6        30.43F
LAKEVILLE      FAIR      46  23  39 CALM      30.45S
EDEN PRAIRIE   FAIR      49  24  37 SE6       30.43F
SOUTH ST PAUL  FAIR      51  23  33 S3        30.44F
LAKE ELMO      FAIR      50  21  32 W3        30.44F
$$
MNZ001>005-007-008-013>017-022>024-027-028-202200-
   Northwest Minnesota

CITY           SKY/WX    TMP DP  RH WIND       PRES   REMARKS
BEMIDJI        FAIR      56  27  32 SE5       30.35F
HALLOCK        FAIR      57  34  41 S13       30.35F
ROSEAU         FAIR      57  37  47 SW8       30.36F
WARROAD        FAIR      57  36  44 SW9       30.36F
THIEF RVR FALL FAIR      54  33  45 VRB7      30.38F
CROOKSTON      FAIR      54  36  50 W7        30.38F
FOSSTON        FAIR      57  28  33 W6        30.37F
DETROIT LAKES  FAIR      54  21  28 SW8       30.39F
MOORHEAD       FAIR      54  25  32 S12       30.38F
PARK RAPIDS    FAIR      54  26  34 S8        30.37F
MAHNOMEN       MOCLDY    56  30  37 SE5       30.36F
$$
MNZ006-009>011-018-025>026-202200-
   North Central Minnesota

CITY           SKY/WX    TMP DP  RH WIND       PRES   REMARKS
BAUDETTE       CLOUDY    59  31  34 NW10      30.34F
FLAG ISLAND    FAIR      45  25  45 SE12      30.34F
INTL FALLS     FAIR      58  20  22 VRB6      30.35F
WASKISH        CLOUDY    55  30  38 W7        30.37F
BIG FORK       FAIR      57  21  24 CALM      30.36F
LONGVILLE      FAIR      55  21  26 CALM      30.37F
GRAND RAPIDS   FAIR      55  22  27 W3        30.38F
CRANE LAKE     FAIR      55  10  16 S5        30.37F
ORR            FAIR      57  12  17 S5        30.34F
COOK           FAIR      57  18  21 CALM      30.36F
WALKER         FAIR      55  24  31 CALM      30.37F
$$
MNZ012-019>021-037-202200-
   Northeast Minnesota

CITY           SKY/WX    TMP DP  RH WIND       PRES   REMARKS
DULUTH         FAIR      54  24  31 SW9       30.38F
ELY            FAIR      55   9  15 CALM      30.36S
HIBBING        FAIR      55  19  24 MISG      30.36F
EVELETH        FAIR      57  20  23 S10       30.37F
DULUTH HARBOR  FAIR      52  27  37 E6        30.40F
TWO HARBORS    FAIR      61  34  36 S9        30.36F
SILVER BAY     FAIR      55  21  26 SW14      30.36F
GRAND MARAIS     N/A     42  32  67 E3        30.40F
G MARAIS ARPRT FAIR      52  10  19 S7        30.38F
$$
MNZ029>031-032-039>041-046>048-054>057-064-202200-
   West Central Minnesota

CITY           SKY/WX    TMP DP  RH WIND       PRES   REMARKS
FERGUS FALLS   FAIR      52  27  37 S6        30.35F
WHEATON        MOSUNNY   52  37  58 SE10G18   30.39F
MORRIS         MOSUNNY   52  37  58 S7        30.38F
ALEXANDRIA     FAIR      53  21  28 SE5       30.39F
ELBOW LAKE     FAIR      53  31  42 S8        30.39F
WADENA         FAIR      52  25  35 SE7       30.39F
GLENWOOD       FAIR      54  28  37 SE9       30.40F
APPLETON       MOSUNNY   48  32  53 SE9       30.40F
BENSON         MOSUNNY   54  36  50 S10       30.41F
ORTONVILLE     CLOUDY    48  34  57 SE12      30.38F
MADISON        PTSUNNY   45  36  70 SE12      30.39F
WILLMAR        FAIR      48  36  61 SE9       30.44F
$$
MNZ033>034-036-042>043-049>051-058-059-202200-
   Central Minnesota

CITY           SKY/WX    TMP DP  RH WIND       PRES   REMARKS
ST CLOUD       FAIR      50  21  32 S6        30.42F
SAUK CENTRE    FAIR      51  27  38 S3        30.40F
PAYNESVILLE    FAIR      48  24  39 S6        30.42F
AITKIN         FAIR      52  19  28 S10       30.38F
PINE RIVER     FAIR      52  27  37 SW5       30.41F
BRAINERD       FAIR      54  21  27 S9        30.40F
STAPLES        FAIR      52  18  25 SW7       30.40F
LONG PRAIRIE   FAIR      52  27  37 S5        30.41F
LITTLE FALLS   FAIR      50   9  18 SW8       30.41F
LITCHFIELD     FAIR      48  28  46 SE8       30.43F
BUFFALO        FAIR      47  20  34 CALM      30.44F
MAPLE LAKE     FAIR      48  27  43 E3        30.44F
HUTCHINSON     FAIR      46  30  54 E6        30.44F
$$
MNZ037-044-045-052-053-202200-
   East Central Minnesota

CITY           SKY/WX    TMP DP  RH WIND       PRES   REMARKS
PRINCETON      FAIR      54  19  26 S6        30.43F
MORA           FAIR      50  21  32 SW5       30.44F
CAMBRIDGE      FAIR      54  30  40 SW3       30.43F
RUSH CITY      FAIR      52  19  27 SW3       30.43F
MOOSE LAKE     FAIR      54  27  35 S7        30.38F
HINCKLEY       FAIR      54  28  37 S5        30.42F
CLOQUET        FAIR      55  18  22 S7        30.38F
MCGREGOR       FAIR      54  27  35 W6        30.40F
$$
MNZ071>073-080-081-089-090-097-098-202200-
   Southwest Minnesota

CITY           SKY/WX    TMP DP  RH WIND       PRES   REMARKS
MONTEVIDEO     MOSUNNY   48  30  49 SW8       30.41F
GRANITE FALLS  MOSUNNY   45  34  65 SE12      30.42F
CANBY          CLOUDY    44  33  66 E9        30.40F
MARSHALL       CLOUDY    42  32  67 SE9       30.40F
REDWOOD FALLS  SUNNY     42  32  67 SE9       30.42F
OLIVIA         SUNNY     48  36  61 SE10      30.42F
PIPESTONE      CLOUDY   N/A N/A N/A SE8       30.36F
WINDOM         CLOUDY    39  21  48 E7        30.41F
WORTHINGTON    CLOUDY    41  33  73 E9        30.38F
JACKSON        CLOUDY    37  30  75 E6        30.41F
TRACY          MOSUNNY   42  33  70 SE8       30.39F
SLAYTON        MOSUNNY   39  32  76 SE9       30.38F
$$
MNZ065>067-074>077-082>085-091>093-202200-
   South Central Minnesota

CITY           SKY/WX    TMP DP  RH WIND       PRES   REMARKS
MANKATO        FAIR      43  26  51 SE7       30.44F
NEW ULM        CLOUDY    43  25  49 S7        30.43F
ST JAMES       MOSUNNY   41  27  56 E8        30.44F
FAIRMONT       CLOUDY    39  28  64 SE7       30.42F
GLENCOE        FAIR      47  29  48 SE3       30.43F
OWATONNA       FAIR      46  30  53 SW3       30.44F
WASECA         FAIR      43  27  52 SE6       30.45F
ALBERT LEA     FAIR      43  19  39 E8        30.44F
$$
MNZ078>079-086>088-094>096-202200-
   Southeast Minnesota

CITY           SKY/WX    TMP DP  RH WIND       PRES   REMARKS
ROCHESTER      FAIR      44  30  57 SW7       30.44F
RED WING       FAIR      52  10  19 CALM      30.44F
STANTON        FAIR      47  31  53 SW6       30.44F
DODGE CENTER   FAIR      45  25  45 CALM      30.44F
WINONA         FAIR      55  21  26 SE3       30.42F
AUSTIN         FAIR      43  25  49 SE3       30.44F
PRESTON        FAIR      45  22  40 S3        30.44F
$$
ABBREVIATIONS USED IN REMARKS
   TC - TEMPERATURES IN CELSIUS
  WCI - WIND CHILL INDEX
   HX - HEAT INDEX
  VSB - VISIBILITY
$$




USA.gov is the U.S. government's official web portal to all federal, state and local government web resources and services.